Time,TemperatureF,DewpointF,PressureIn,WindDirection,WindDirectionDegrees,WindSpeedMPH,WindSpeedGustMPH,Humidity,HourlyPrecipIn,Conditions,Clouds,dailyrainin,SoftwareType,DateUTC
2013-03-15 00:00:00,22.2,14.9,29.91,West,279,3.0,5.0,73,0.00,,,0.00,Wunderground v.1.15,2013-03-15 04:00:00,
2013-03-15 00:01:00,22.1,14.8,29.90,WSW,256,5.0,5.0,73,0.00,,,0.00,Wunderground v.1.15,2013-03-15 04:01:00,
2013-03-15 00:05:00,22.2,14.5,29.91,West,271,5.0,6.0,72,0.00,,,0.00,Wunderground v.1.15,2013-03-15 04:05:00,
2013-03-15 00:06:00,22.2,14.5,29.91,NW,305,2.0,6.0,72,0.00,,,0.00,Wunderground v.1.15,2013-03-15 04:06:00,
2013-03-15 00:07:00,22.2,14.5,29.91,West,271,2.0,6.0,72,0.00,,,0.00,Wunderground v.1.15,2013-03-15 04:07:00,
2013-03-15 00:12:00,22.1,14.4,29.91,WNW,295,7.0,7.0,72,0.00,,,0.00,Wunderground v.1.15,2013-03-15 04:12:00,
2013-03-15 00:13:00,22.1,14.4,29.91,NW,317,3.0,7.0,72,0.00,,,0.00,Wunderground v.1.15,2013-03-15 04:13:00,
2013-03-15 00:14:00,22.2,14.5,29.91,NNE,13,3.0,9.0,72,0.00,,,0.00,Wunderground v.1.15,2013-03-15 04:14:00,
2013-03-15 00:18:00,22.1,14.4,29.91,NNW,334,6.0,9.0,72,0.00,,,0.00,Wunderground v.1.15,2013-03-15 04:18:00,
2013-03-15 00:19:00,22.1,14.1,29.91,West,264,4.0,9.0,71,0.00,,,0.00,Wunderground v.1.15,2013-03-15 04:19:00,
2013-03-15 00:20:00,22.1,13.8,29.91,North,9,5.0,8.0,70,0.00,,,0.00,Wunderground v.1.15,2013-03-15 04:20:00,
2013-03-15 00:24:00,22.1,13.8,29.91,NNW,331,8.0,12.0,70,0.00,,,0.00,Wunderground v.1.15,2013-03-15 04:24:00,
2013-03-15 00:25:00,22.1,13.8,29.91,NNW,327,0.0,12.0,70,0.00,,,0.00,Wunderground v.1.15,2013-03-15 04:25:00,
2013-03-15 00:28:00,22.1,13.8,29.91,NNE,22,6.0,12.0,70,0.00,,,0.00,Wunderground v.1.15,2013-03-15 04:28:00,
2013-03-15 00:30:00,22.1,13.8,29.91,West,263,4.0,4.0,70,0.00,,,0.00,Wunderground v.1.15,2013-03-15 04:30:00,
2013-03-15 00:32:00,22.1,13.8,29.91,NW,317,4.0,5.0,70,0.00,,,0.00,Wunderground v.1.15,2013-03-15 04:32:00,
2013-03-15 00:34:00,22.1,13.8,29.91,West,259,0.0,10.0,70,0.00,,,0.00,Wunderground v.1.15,2013-03-15 04:34:00,
2013-03-15 00:35:00,22.1,13.8,29.91,NNW,339,4.0,10.0,70,0.00,,,0.00,Wunderground v.1.15,2013-03-15 04:35:00,
2013-03-15 00:36:00,22.1,13.8,29.91,WNW,291,1.0,10.0,70,0.00,,,0.00,Wunderground v.1.15,2013-03-15 04:36:00,
2013-03-15 00:38:00,22.1,13.5,29.91,WNW,303,6.0,10.0,69,0.00,,,0.00,Wunderground v.1.15,2013-03-15 04:38:00,
2013-03-15 00:40:00,22.0,13.4,29.91,WSW,255,4.0,4.0,69,0.00,,,0.00,Wunderground v.1.15,2013-03-15 04:40:00,
2013-03-15 00:41:00,22.0,13.4,29.91,West,281,4.0,4.0,69,0.00,,,0.00,Wunderground v.1.15,2013-03-15 04:41:00,
2013-03-15 00:43:00,22.0,13.4,29.91,West,279,2.0,4.0,69,0.00,,,0.00,Wunderground v.1.15,2013-03-15 04:43:00,
2013-03-15 00:45:00,22.0,13.7,29.92,North,5,5.0,16.0,70,0.00,,,0.00,Wunderground v.1.15,2013-03-15 04:45:00,
2013-03-15 00:46:00,22.0,13.4,29.92,NW,325,1.0,16.0,69,0.00,,,0.00,Wunderground v.1.15,2013-03-15 04:46:00,
2013-03-15 00:47:00,22.0,13.4,29.92,NNE,22,4.0,16.0,69,0.00,,,0.00,Wunderground v.1.15,2013-03-15 04:47:00,
2013-03-15 00:48:00,22.0,13.7,29.92,NNW,338,9.0,16.0,70,0.00,,,0.00,Wunderground v.1.15,2013-03-15 04:48:00,
2013-03-15 00:51:00,22.0,13.7,29.91,WNW,298,4.0,4.0,70,0.00,,,0.00,Wunderground v.1.15,2013-03-15 04:51:00,
2013-03-15 00:52:00,22.0,13.7,29.92,WSW,252,6.0,6.0,70,0.00,,,0.00,Wunderground v.1.15,2013-03-15 04:52:00,
2013-03-15 00:53:00,22.0,13.4,29.91,West,269,2.0,9.0,69,0.00,,,0.00,Wunderground v.1.15,2013-03-15 04:53:00,
2013-03-15 00:57:00,22.0,13.7,29.92,West,281,2.0,9.0,70,0.00,,,0.00,Wunderground v.1.15,2013-03-15 04:57:00,
2013-03-15 00:59:00,22.0,13.7,29.92,SW,227,5.0,9.0,70,0.00,,,0.00,Wunderground v.1.15,2013-03-15 04:59:00,
2013-03-15 01:00:00,22.0,13.4,29.92,WSW,246,2.0,3.0,69,0.00,,,0.00,Wunderground v.1.15,2013-03-15 05:00:00,
2013-03-15 01:04:00,22.0,13.4,29.92,WSW,252,2.0,4.0,69,0.00,,,0.00,Wunderground v.1.15,2013-03-15 05:04:00,
2013-03-15 01:05:00,22.0,13.0,29.92,West,271,9.0,9.0,68,0.00,,,0.00,Wunderground v.1.15,2013-03-15 05:05:00,
2013-03-15 01:06:00,21.9,13.0,29.92,North,5,4.0,9.0,68,0.00,,,0.00,Wunderground v.1.15,2013-03-15 05:06:00,
2013-03-15 01:09:00,21.9,12.6,29.92,West,281,1.0,9.0,67,0.00,,,0.00,Wunderground v.1.15,2013-03-15 05:09:00,
2013-03-15 01:12:00,21.9,12.6,29.92,SSW,200,0.0,5.0,67,0.00,,,0.00,Wunderground v.1.15,2013-03-15 05:12:00,
2013-03-15 01:14:00,21.9,12.6,29.92,West,279,6.0,6.0,67,0.00,,,0.00,Wunderground v.1.15,2013-03-15 05:14:00,
2013-03-15 01:17:00,21.8,12.5,29.92,WNW,282,5.0,6.0,67,0.00,,,0.00,Wunderground v.1.15,2013-03-15 05:17:00,
2013-03-15 01:18:00,21.8,12.5,29.92,West,261,6.0,6.0,67,0.00,,,0.00,Wunderground v.1.15,2013-03-15 05:18:00,
2013-03-15 01:19:00,21.8,12.5,29.92,WNW,286,6.0,6.0,67,0.00,,,0.00,Wunderground v.1.15,2013-03-15 05:19:00,
2013-03-15 01:22:00,21.8,12.5,29.92,West,275,3.0,6.0,67,0.00,,,0.00,Wunderground v.1.15,2013-03-15 05:22:00,
2013-03-15 01:23:00,21.8,12.5,29.92,WSW,246,1.0,6.0,67,0.00,,,0.00,Wunderground v.1.15,2013-03-15 05:23:00,
2013-03-15 01:29:00,21.7,12.4,29.92,WNW,284,6.0,6.0,67,0.00,,,0.00,Wunderground v.1.15,2013-03-15 05:29:00,
2013-03-15 01:30:00,21.7,12.4,29.92,West,281,3.0,3.0,67,0.00,,,0.00,Wunderground v.1.15,2013-03-15 05:30:00,
2013-03-15 01:33:00,21.7,12.4,29.92,WNW,284,1.0,3.0,67,0.00,,,0.00,Wunderground v.1.15,2013-03-15 05:33:00,
2013-03-15 01:34:00,21.6,12.3,29.92,NW,311,0.0,3.0,67,0.00,,,0.00,Wunderground v.1.15,2013-03-15 05:34:00,
2013-03-15 01:35:00,21.6,12.0,29.93,NNW,329,3.0,3.0,66,0.00,,,0.00,Wunderground v.1.15,2013-03-15 05:35:00,
2013-03-15 01:37:00,21.6,12.0,29.92,West,273,0.0,3.0,66,0.00,,,0.00,Wunderground v.1.15,2013-03-15 05:37:00,
2013-03-15 01:39:00,21.5,11.9,29.92,WNW,288,3.0,3.0,66,0.00,,,0.00,Wunderground v.1.15,2013-03-15 05:39:00,
2013-03-15 01:41:00,21.5,11.9,29.92,West,272,6.0,6.0,66,0.00,,,0.00,Wunderground v.1.15,2013-03-15 05:41:00,
2013-03-15 01:42:00,21.5,11.9,29.92,WSW,242,2.0,6.0,66,0.00,,,0.00,Wunderground v.1.15,2013-03-15 05:42:00,
2013-03-15 01:48:00,21.5,11.5,29.93,NW,313,4.0,7.0,65,0.00,,,0.00,Wunderground v.1.15,2013-03-15 05:48:00,
2013-03-15 01:49:00,21.4,11.5,29.93,NW,318,4.0,7.0,65,0.00,,,0.00,Wunderground v.1.15,2013-03-15 05:49:00,
2013-03-15 01:50:00,21.4,11.5,29.93,WSW,252,4.0,4.0,65,0.00,,,0.00,Wunderground v.1.15,2013-03-15 05:50:00,
2013-03-15 01:52:00,21.4,11.5,29.93,NW,309,4.0,7.0,65,0.00,,,0.00,Wunderground v.1.15,2013-03-15 05:52:00,
2013-03-15 01:58:00,21.3,11.4,29.93,WNW,287,6.0,7.0,65,0.00,,,0.00,Wunderground v.1.15,2013-03-15 05:58:00,
2013-03-15 01:59:00,21.3,11.4,29.93,NW,309,3.0,7.0,65,0.00,,,0.00,Wunderground v.1.15,2013-03-15 05:59:00,
2013-03-15 02:04:00,21.3,11.7,29.93,WNW,288,6.0,6.0,66,0.00,,,0.00,Wunderground v.1.15,2013-03-15 06:04:00,
2013-03-15 02:05:00,21.2,11.3,29.93,WSW,256,3.0,6.0,65,0.00,,,0.00,Wunderground v.1.15,2013-03-15 06:05:00,
2013-03-15 02:07:00,21.2,11.3,29.93,NW,308,0.0,6.0,65,0.00,,,0.00,Wunderground v.1.15,2013-03-15 06:07:00,
2013-03-15 02:09:00,21.2,11.3,29.93,WNW,298,6.0,6.0,65,0.00,,,0.00,Wunderground v.1.15,2013-03-15 06:09:00,
2013-03-15 02:10:00,21.1,11.2,29.93,West,266,1.0,4.0,65,0.00,,,0.00,Wunderground v.1.15,2013-03-15 06:10:00,
2013-03-15 02:11:00,21.1,11.2,29.93,WSW,242,4.0,4.0,65,0.00,,,0.00,Wunderground v.1.15,2013-03-15 06:11:00,
2013-03-15 02:14:00,21.1,11.5,29.93,NNW,331,3.0,4.0,66,0.00,,,0.00,Wunderground v.1.15,2013-03-15 06:14:00,
2013-03-15 02:17:00,21.0,11.4,29.94,NW,314,4.0,4.0,66,0.00,,,0.00,Wunderground v.1.15,2013-03-15 06:17:00,
2013-03-15 02:18:00,21.0,11.4,29.94,WSW,243,1.0,4.0,66,0.00,,,0.00,Wunderground v.1.15,2013-03-15 06:18:00,
2013-03-15 02:19:00,20.9,11.3,29.93,North,11,8.0,8.0,66,0.00,,,0.00,Wunderground v.1.15,2013-03-15 06:19:00,
2013-03-15 02:23:00,20.9,11.7,29.93,NNW,338,3.0,5.0,67,0.00,,,0.00,Wunderground v.1.15,2013-03-15 06:23:00,
2013-03-15 02:25:00,20.9,11.3,29.93,WNW,299,5.0,5.0,66,0.00,,,0.00,Wunderground v.1.15,2013-03-15 06:25:00,
2013-03-15 02:27:00,20.8,11.2,29.93,WSW,258,2.0,5.0,66,0.00,,,0.00,Wunderground v.1.15,2013-03-15 06:27:00,
2013-03-15 02:30:00,20.7,11.5,29.93,West,281,3.0,3.0,67,0.00,,,0.00,Wunderground v.1.15,2013-03-15 06:30:00,
2013-03-15 02:33:00,20.7,11.5,29.93,West,277,3.0,5.0,67,0.00,,,0.00,Wunderground v.1.15,2013-03-15 06:33:00,
2013-03-15 02:35:00,20.6,11.0,29.93,NW,322,5.0,5.0,66,0.00,,,0.00,Wunderground v.1.15,2013-03-15 06:35:00,
2013-03-15 02:39:00,20.5,10.9,29.93,West,266,2.0,5.0,66,0.00,,,0.00,Wunderground v.1.15,2013-03-15 06:39:00,
2013-03-15 02:40:00,20.4,10.8,29.94,West,271,7.0,7.0,66,0.00,,,0.00,Wunderground v.1.15,2013-03-15 06:40:00,
2013-03-15 02:44:00,20.4,10.8,29.93,NW,311,1.0,7.0,66,0.00,,,0.00,Wunderground v.1.15,2013-03-15 06:44:00,
2013-03-15 02:46:00,20.3,11.1,29.93,East,88,0.0,7.0,67,0.00,,,0.00,Wunderground v.1.15,2013-03-15 06:46:00,
2013-03-15 02:47:00,20.3,11.1,29.93,WNW,296,3.0,7.0,67,0.00,,,0.00,Wunderground v.1.15,2013-03-15 06:47:00,